Regional Weather Roundup
Issued by NWS

Home | Current Version | Previous Version | Graphics & Text | Print | Product List | Glossary On
Versions: 1 2 3 4 5 6 7 8 9 10 11 12 13 14 15 16 17 18 19 20 21 22 23 24 25 26 27 28
000
ASUS45 KTFX 220410
RWRMT
MONTANA REGIONAL WEATHER ROUNDUP
NATIONAL WEATHER SERVICE GREAT FALLS MT
1000 PM MDT TUE MAR 21 2017

NOTE: "FAIR" INDICATES FEW OR NO CLOUDS BELOW 12000 FEET WITH NO
SIGNIFICANT WEATHER AND/OR OBSTRUCTIONS TO VISIBILITY.

MTZ001>007-043-220500-
WEST OF THE DIVIDE

CITY           SKY/WX    TMP DP  RH WIND       PRES   REMARKS
KALISPELL      CLOUDY    40  39  97 CALM      29.76F
MISSOULA       LGT RAIN  44  42  93 SE8       29.79R
BUTTE          CLOUDY    42  33  70 SE10      29.80R
MULLAN PASS    SNOW      33  33 100 W8G22     29.78R VSB 1/2 WCI  26
ANACONDA         N/A     45  37  76 SW9       29.77F
DEER LODGE       N/A     46  37  71 N8        29.81R
EUREKA           N/A     37  30  75 CALM      29.79F
HAMILTON         N/A     46  45  93 NE3       29.78F
PLAINS           N/A     45  35  67 CALM      29.78F
RONAN            N/A     42  39  89 N3        29.82F
$$

MTZ008-052>055-220500-
SOUTHWEST MONTANA

CITY           SKY/WX    TMP DP  RH WIND       PRES   REMARKS
BOZEMAN        CLEAR     37  33  85 N9        29.81F WCI  30
DILLON         CLOUDY    41  34  76 E5        29.80F
W YELLOWSTONE  CLOUDY    36  30  80 NW5       29.92S
ENNIS          CLEAR     36  34  93 CALM      29.86S
THREE FORKS      N/A     39  39 100 CALM      29.83F
TWIN BRIDGES     N/A     43  33  67 N7        29.83R
$$

MTZ009-010-012-014-046-048-049-054-220500-
EAST SLOPES AND CENTRAL MONTANA

CITY           SKY/WX    TMP DP  RH WIND       PRES   REMARKS
CUT BANK       CLOUDY    36  32  85 SE10      29.80F WCI  28
GREAT FALLS    MOCLDY    41  30  65 S3        29.78F
HELENA         CLOUDY    41  35  79 E6        29.79F
AUGUSTA          N/A     35  30  83 NE8       29.78F WCI  29
BOWMANS CRNR   MOCLDY    42  33  68 S8        29.76F
CHOTEAU          N/A     32  30  93 N5        29.81F
CONRAD           N/A     35  32  89 E2        29.85F
FAIRFIELD        N/A     38  31  77 E9        29.78S WCI  31
POWER            N/A     37  31  78 NE9       29.79S WCI  30
RAYNESFORD     MOCLDY    38  31  74 SE21G28   29.79F WCI  28
$$

MTZ011-013-016-021-045-047-050-051-220500-
NORTH CENTRAL MONTANA

CITY           SKY/WX    TMP DP  RH WIND       PRES   REMARKS
HAVRE          CLOUDY    41  33  73 NE12      29.83F
LEWISTOWN      PTCLDY    36  31  82 E13       29.86S WCI  27
N BAR RANCH    CLOUDY    36  34  93 SE10      29.93F FOG     WCI  28
CHINOOK          N/A     37  32  81 E20G28    29.87F WCI  27
DENTON         MOCLDY    38  33  80 S23       29.83F WCI  28
FORT BENTON      N/A     41  32  70 MISG      29.80F
GEYSER         MOCLDY    33  29  88 W5        29.81F
GRASS RANGE    MOCLDY    36  34  90 E8        29.86F WCI  30
STANFORD         N/A     38  30  72 SE9       29.81F
WINIFRED       MOCLDY    34  32  93 E8        29.86S WCI  27
$$

MTZ017>020-022>027-061-062-220500-
NORTHEAST MONTANA

CITY           SKY/WX    TMP DP  RH WIND       PRES   REMARKS
GLASGOW        CLOUDY    35  27  72 SE18G25   30.07F WCI  24
JORDAN           N/A     34  29  82 SE21G29   30.02F WCI  22
SIDNEY         CLOUDY   N/A N/A N/A SE13      30.22F
WOLF POINT     CLOUDY    36  24  62 SE10G21   30.16S WCI  28
MALTA          CLOUDY    37  30  75 SE14G23   30.00F WCI  29
PLENTYWOOD       N/A     25  18  74 E17G25    30.20F WCI  11
POPLAR           N/A     34  25  69 SE15      30.17F WCI  24
SCOBEY           N/A     29  14  53 E16       30.10F WCI  17
$$

MTZ028>42-056>058-220500-
SOUTHCENTRAL AND SOUTHEAST MONTANA

CITY           SKY/WX    TMP DP  RH WIND       PRES   REMARKS
BAKER          CLOUDY    29  25  85 SE33G43   30.15F WCI  13
BILLINGS       CLOUDY    38  37  97 NE5       29.94F
LIVINGSTON     CLOUDY    34  32  92 SE8       29.92F WCI  27
MILES CITY     CLOUDY    33  27  78 SE21G30   30.08F WCI  21
BIG TIMBER     FOG       34  34 100 CALM      29.95F VSB 0
FORSYTH          N/A     34  32  93 E16       30.03F WCI  23
HARLOWTON      LGT RAIN  33  33  98 NE7       29.94F FOG     WCI  27
LAUREL           N/A     38  34  85 N2        29.93F
ROUNDUP          N/A     37  31  79 E3        29.88F
$$

REGIONAL REPORTS...DAKOTAS

CITY           SKY/WX    TMP DP  RH WIND       PRES   REMARKS
WILLISTON      CLEAR     26  17  68 SE9       30.27F WCI  17
MINOT          CLOUDY    19  12  74 SE15G22   30.41F WCI   5
DICKINSON      CLOUDY    27  15  61 SE22G31   30.24F WCI  13
BEACH            N/A    N/A N/A N/A MISG        N/A
TIOGA            N/A     19  19 100 SE21      30.30F WCI   3
WATFORD CITY   MOCLDY    27  18  69 SE18G28   30.26F WCI  13
BISMARCK       CLOUDY    24  17  74 E14       30.43F WCI  12
GRAND FORKS    CLEAR     18   8  65 N5        30.59S
FARGO          CLEAR     18  14  84 N6        30.57S WCI  10
BUFFALO SD       N/A     29  25  85 SE22G32   30.14F WCI  15
RAPID CITY     CLOUDY    29  27  92 SE16      30.24F WCI  17
$$

REGIONAL REPORTS...WYOMING/IDAHO/WASHINGTON

CITY           SKY/WX    TMP DP  RH WIND       PRES   REMARKS
GILLETTE       CLOUDY    35  33  92 S28G38    30.02F WCI  22
SHERIDAN       CLOUDY    40  35  83 SE10      29.93F
BUFFALO WY     CLOUDY    38  34  85 SE18      29.95F WCI  28
CODY           CLEAR     35  33  92 S6        29.95F WCI  30
YELLOWSTONE LA   N/A     30  29  96 CALM      30.00F
IDAHO FALLS    TSTM      56  40  55 SW21G33   29.89R
SALMON         CLOUDY    54  39  58 SW9       29.79R
BOISE          CLOUDY    49  41  74 E10       29.86F
SPOKANE        CLOUDY    45  41  86 SW16G23   29.76R
$$

REGIONAL REPORTS...ALBERTA

CITY           SKY/WX    TMP DP  RH WIND       PRES   REMARKS
EDMONTON       CLEAR     32  21  64 SE14      29.79F WCI  22
CALGARY        MOCLDY    37  30  75 S8        29.70F WCI  31
LETHBRIDGE     MOCLDY    39  34  81 SE10      29.75F
MEDICINE HAT   CLEAR     39  30  70 SE3       29.83F
WATERTON GATE    N/A     41  36  81 S5          N/A
CARDSTON         N/A     39  32  75 SE9         N/A
MILK RIVER       N/A     37  34  87 S13         N/A  WCI  29
$$

REGIONAL REPORTS...SASKATCHEWAN

CITY           SKY/WX    TMP DP  RH WIND       PRES   REMARKS
SWIFT CURRENT  MOCLDY    32  21  64 SE29G36   29.96F WCI  18
REGINA         PTCLDY    18  12  79 SE25G35   30.24F WCI  -1
SASKATOON      CLOUDY    25  14  63 SE20G29   30.16S WCI  11
CYPRESS HILLS    N/A     30  27  86 SE21G29     N/A  WCI  17
VAL MARIE        N/A     36  25  64 SE22G31     N/A  WCI  24
ROCKGLEN         N/A     27  21  80 SE18G28     N/A  WCI  13
ASSINIBOIA       N/A     34  21  60 SE10G18     N/A  WCI  26
$$




USA.gov is the U.S. government's official web portal to all federal, state and local government web resources and services.